DW6536 Weather Reports


Display with metric or nautical units.
time (UTC)temp
F
wind
direction
speed
MPH
gust
MPH
rain 1hr
in
rain 24hr
in
rain mn
in
humidity
%
barometer
mb
20231202090013 43 27 0.0 0.0 0.00 0.00 0.00 89 1011.7
20231202084513 43 27 0.0 0.0 0.00 0.00 0.00 90 1011.4
20231202083012 43 27 0.0 0.0 0.00 0.00 0.00 90 1011.5
20231202081525 43 27 0.0 0.0 0.00 0.00 0.00 89 1011.5
20231202080008 44 27 0.0 0.0 0.00 0.00 0.00 89 1011.8
20231202074510 44 27 0.0 0.0 0.00 0.00 0.00 88 1012.1
20231202073003 44 27 0.0 0.0 0.00 0.00 0.00 87 1012.4
20231202071600 45 16 0.0 0.0 0.00 0.00 0.00 87 1012.7
20231202070059 45 16 0.0 0.0 0.00 0.00 0.00 88 1012.8
20231202064600 45 16 0.0 0.0 0.00 0.00 0.00 88 1013.0
20231202063056 45 16 0.0 0.0 0.00 0.00 0.00 87 1013.2
20231202061554 45 35 0.0 0.0 0.00 0.00 0.00 87 1013.2
20231202060052 45 37 0.0 0.0 0.00 0.00 0.00 86 1013.3
20231202054551 46 37 0.0 0.0 0.00 0.00 0.02 86 1013.1
20231202053101 46 29 0.0 0.0 0.00 0.00 0.02 86 1013.2
20231202051551 46 29 0.0 0.0 0.00 0.00 0.02 85 1013.3
20231202050050 46 29 0.0 0.0 0.00 0.00 0.02 84 1013.5
20231202044546 47 29 0.0 0.0 0.00 0.00 0.02 83 1013.3
20231202043043 48 29 0.0 0.0 0.00 0.00 0.02 83 1013.2
20231202041546 48 29 0.0 0.0 0.00 0.00 0.02 81 1013.2
20231202040041 48 29 0.0 0.0 0.00 0.00 0.02 81 1013.0
20231202034543 49 29 0.0 0.0 0.00 0.00 0.02 81 1012.8
20231202033040 49 33 0.0 0.0 0.00 0.00 0.02 80 1012.6
20231202031540 50 33 0.0 0.0 0.00 0.00 0.02 78 1012.6
20231202030039 51 33 0.0 0.0 0.00 0.00 0.02 76 1012.5
20231202024539 52 33 0.0 0.0 0.00 0.00 0.02 75 1012.3
20231202023039 53 33 0.0 0.0 0.00 0.00 0.02 73 1012.2
20231202021544 54 33 0.0 0.0 0.00 0.00 0.02 72 1012.2
20231202020037 54 31 0.0 0.0 0.00 0.00 0.02 72 1012.2
20231202014537 54 37 0.0 0.0 0.00 0.00 0.02 71 1011.9
20231202013037 54 37 1.0 0.0 0.00 0.00 0.02 72 1011.7
20231202011541 53 72 0.0 0.0 0.00 0.00 0.02 74 1011.5
20231202010038 53 72 0.0 0.0 0.00 0.00 0.02 74 1011.4
20231202004537 54 72 0.0 0.0 0.00 0.00 0.02 71 1011.3
20231202003035 56 72 0.0 0.0 0.00 0.00 0.02 69 1011.1
20231202001534 57 38 0.0 0.0 0.00 0.00 0.02 66 1010.9
20231202000041 59 38 0.0 0.0 0.00 0.00 0.02 63 1010.8
20231201234550 60 38 0.0 0.0 0.00 0.00 0.02 61 1010.6
20231201233040 61 50 0.0 0.0 0.00 0.00 0.02 58 1010.5
20231201231538 63 50 0.0 0.0 0.00 0.00 0.02 56 1010.5
20231201230033 64 54 1.0 0.0 0.00 0.00 0.02 54 1010.4
20231201224534 65 56 1.0 0.0 0.00 0.00 0.02 52 1010.4
20231201223033 66 49 1.0 0.0 0.00 0.00 0.02 49 1010.1
20231201221544 66 40 1.0 0.0 0.00 0.00 0.02 47 1010.0
20231201220030 66 64 1.0 0.0 0.00 0.00 0.02 49 1010.2
20231201214532 67 40 1.0 0.0 0.00 0.00 0.02 48 1010.0
20231201213029 68 42 1.0 0.0 0.00 0.00 0.02 47 1010.0
20231201211528 68 43 2.0 0.0 0.00 0.00 0.02 46 1009.9
20231201210031 68 42 2.0 0.0 0.00 0.00 0.02 46 1010.0
20231201204526 68 46 2.0 0.0 0.00 0.00 0.02 46 1010.1
20231201203026 68 47 2.0 0.0 0.00 0.00 0.02 47 1010.3
20231201201523 67 24 1.0 0.0 0.00 0.00 0.02 49 1010.5
20231201200021 67 352 1.0 0.0 0.00 0.00 0.02 49 1010.7
20231201194528 66 35 1.0 0.0 0.00 0.00 0.02 49 1010.8
20231201193019 66 338 1.0 0.0 0.00 0.00 0.02 53 1011.0
20231201191516 65 23 1.0 0.0 0.00 0.00 0.02 53 1011.4
20231201190014 64 49 1.0 0.0 0.00 0.00 0.02 54 1011.8
20231201184519 63 284 1.0 0.0 0.00 0.00 0.02 55 1012.2
20231201183009 62 35 1.0 0.0 0.00 0.00 0.02 56 1012.4
20231201181507 62 52 1.0 0.0 0.00 0.00 0.02 55 1012.4
20231201180004 60 216 1.0 0.0 0.00 0.00 0.02 56 1012.8
20231201174504 60 14 1.0 0.0 0.00 0.00 0.02 58 1012.9
20231201173102 59 360 2.0 0.0 0.00 0.00 0.02 59 1012.7
20231201173002 59 333 2.0 0.0 0.00 0.00 0.02 59 1012.8
20231201171558 58 31 2.0 0.0 0.00 0.00 0.02 58 1012.8
20231201170055 58 60 2.0 0.0 0.00 0.00 0.02 59 1012.9
20231201164555 58 14 1.0 0.0 0.00 0.00 0.02 60 1013.1
20231201163055 57 23 2.0 0.0 0.00 0.00 0.02 60 1013.2
20231201161611 56 305 2.0 0.0 0.00 0.00 0.02 63 1013.1
20231201160051 55 351 2.0 0.0 0.00 0.00 0.02 65 1012.9
20231201154550 54 15 3.0 0.0 0.00 0.00 0.02 67 1012.7
20231201153052 53 12 2.0 0.0 0.00 0.00 0.02 74 1012.5
20231201151547 52 19 2.0 0.0 0.00 0.00 0.02 78 1012.5
20231201150050 51 359 2.0 0.0 0.00 0.00 0.02 82 1012.5
20231201144552 50 321 2.0 0.0 0.00 0.00 0.02 86 1012.4
20231201143042 49 244 1.0 0.0 0.00 0.00 0.02 89 1012.0
20231201141542 49 333 2.0 0.0 0.00 0.00 0.02 89 1011.8
20231201140037 49 358 2.0 0.0 0.00 0.00 0.02 91 1011.9
20231201134535 48 348 1.0 0.0 0.00 0.00 0.02 93 1011.9
20231201133034 48 326 1.0 0.0 0.00 0.00 0.02 94 1011.5
20231201131528 49 333 0.0 0.0 0.00 0.00 0.02 94 1011.2
20231201130027 49 314 0.0 0.0 0.00 0.00 0.02 94 1010.9
20231201124522 50 5 1.0 0.0 0.00 0.00 0.02 94 1010.4
20231201123020 51 357 2.0 0.0 0.00 0.00 0.01 96 1010.3
20231201121518 50 343 0.0 0.0 0.00 0.00 0.01 97 1010.0
20231201120018 50 268 0.0 0.0 0.00 0.00 0.01 97 1009.6
20231201114513 50 220 0.0 0.0 0.00 0.00 0.01 96 1009.3
20231201113013 51 220 0.0 0.0 0.00 0.00 0.01 97 1008.8
20231201111513 51 220 0.0 0.0 0.00 0.00 0.01 96 1008.6
20231201110011 51 220 0.0 0.0 0.00 0.00 0.01 95 1008.4
20231201104507 52 220 0.0 0.0 0.00 0.00 0.01 95 1008.4
20231201103003 53 220 0.0 0.0 0.00 0.00 0.01 96 1008.5
20231201101501 53 220 0.0 0.0 0.00 0.00 0.01 96 1008.5
20231201100103 54 220 0.0 0.0 0.00 0.00 0.01 96 1008.6
20231201094609 54 220 0.0 0.0 0.00 0.00 0.01 96 1008.4
20231201093104 55 220 0.0 0.0 0.00 0.00 0.01 97 1008.4
20231201091555 55 288 0.0 0.0 0.00 0.00 0.01 97 1008.6